sat.trackr.live / text

‹ back to catalog

STARLINK-4133

NORAD 53253 · 2022-086M

PAYLOAD ACTIVE UNKNOWN

§ Identity

Operator
Country
US
Launch date
2022-07-24
Launch site
AFETR
Launch vehicle
Mass (kg)
RCS (m²)

Purposes: comms

External: N2YO · Heavens-Above · Gunter

§ Orbital elements

Epoch: 2026-05-24T20:59:31.218432Z

Period
95.44 min
Inclination
53.2150°
Eccentricity
0.0001013
Mean motion
15.08838216 rev/d
Perigee alt
539.0 km
Apogee alt
540.4 km
Semi-major
6,917.9 km
B*
5.1388e-6
RAAN
212.1132°
Arg perigee
81.3215°
Mean anomaly
278.7892°
Rev number
21,256

§ Raw data

STARLINK-41331 53253U 22086M   26144.87466688 -.00000206  00000+0  51388-5 0  99942 53253  53.2150 212.1132 0001013  81.3215 278.7892 15.08838216212564

JSON: /api/v1/satellites/53253 · /tle

For live sub-satellite position, see the globe view (requires WebGL).

§ Visibility from observer

Set your observer location to see the next 7 days of passes ≥ 10°. The values pass through the URL so the page stays shareable.

No JS? Fill the form by hand. The geolocation button needs JavaScript.